SCP
0 0 -0 -0 -0 -0 -0 -0 -0 -0 -0 -0 -0 -0 -0 -0 -0 -0 -0 -0 -0 0 0 0 0 0 0 0 0 0 0 0
0 0 0 -0 -0 -0 -0 -0 0 0 0 -0 -0 -0 -0 -0 -0 -0 -0 0 0 0 0 0 0 0 0 0 0 0 0 -0
0 0 0 0 0 0 0 0 0 0 0 -0 -0 -0 -0 -0 -0 -0 0 0 0 0 0 0 0 0 0 0 0 0 0 -0
0 0 0 0 0 0 0 0 0 -0 -0 -0 0 -0 -0 -0 0 0 0 0 0 0 0 0 0 0 0 0 0 0 0 0
0 0 0 0 0 0 0 0 0 -0 -0 -0 0 0 0 0 0 0 0 0 0 0 0 0 0 0 0 0 0 0 0 0
0 0 0 0 0 0 0 0 0 0 0 0 0 0 0 0 0 0 0 0 0 0 0 0 0 0 0 0 0 0 0 0
0 0 0 0 0 0 0 0 0 0 0 0 0 0 0 0 0 0 0 0 0 0 0 0 0 0 0 0 0 0 0 0
0 0 0 0 0 0 0 0 0 0 0 0 0 0 0 0 0 0 0 0 0 0 0 0 0 0 0 0 0 0 0 0
0 0 0 0 0 0 0 0 0 0 0 0 0 0 0 0 0 0 0 0 0 0 0 0 0 0 0 0 0 0 0 0
0 1 0 0 0 0 0 0 0 0 0 0 0 0 0 0 0 0 0 0 0 0 0 0 0 0 0 0 0 0 0 0
0 0 0 0 0 0 0 0 0 0 0 0 0 0 0 0 0 0 0 0 0 0 0 0 0 0 0 0 0 0 0 0
0 0 0 0 0 0 0 0 0 0 0 0 0 0 0 0 0 0 0 0 0 0 0 0 0 0 0 0 0 0 0 0
0 0 0 0 0 0 0 0 0 0 0 0 0 0 0 0 0 0 0 0 0 0 0 1 0 1 0 0 0 0 1 1
0 0 0 0 0 0 0 0 0 0 0 0 0 0 0 0 0 0 0 0 0 0 0 0 1 1 0 0 0 0 0 1
0 -0 0 0 0 0 0 0 0 0 0 0 1 1 1 0 0 0 0 0 0 0 0 0 -0 0 1 0 0 0 0 0
0 0 0 0 0 0 0 1 1 1 1 2 1 1 0 1 1 1 1 0 -0 0 -0 0 0 0 0 0 0 0 0 0
0 0 0 0 0 0 1 1 2 2 1 1 1 0 0 0 0 -0 -0 -0 0 0 0 0 0 0 0 0 0 0 0 0
0 0 0 0 0 0 1 1 1 1 1 0 0 0 0 0 0 0 0 0 0 0 0 0 0 0 0 0 0 0 0 0
0 0 0 0 0 0 1 1 1 0 0 0 0 0 0 0 0 0 0 0 0 0 0 0 0 0 0 0 0 0 0 0
Wind_Speed_500mb
72 65 57 48 41 35 33 37 37 37 37 35 33 30 26 25 24 23 23 22 20 18 14 10 8 6 6 8 9 10 12 13
73 67 60 50 41 35 31 35 36 36 35 34 33 30 27 25 24 23 22 20 17 14 11 9 8 10 10 11 13 15 18 22
74 69 61 53 44 36 31 33 35 34 34 34 33 30 28 25 23 22 20 19 17 16 14 12 12 12 14 16 18 21 24 28
73 67 62 55 47 38 32 31 34 33 33 33 32 29 27 23 21 20 19 17 16 14 12 12 13 14 17 19 22 25 27 28
73 67 61 57 51 45 38 33 32 33 32 31 29 27 24 22 20 17 16 14 12 10 10 10 11 13 16 18 20 22 23 25
70 67 64 61 56 49 43 38 33 32 32 30 29 26 23 18 16 14 12 10 9 8 8 10 11 13 17 18 20 23 26 28
60 69 63 62 58 54 47 41 38 33 32 30 28 25 21 19 17 14 12 10 7 8 9 11 13 15 18 19 21 23 24 27
60 68 65 64 60 55 51 45 40 35 31 27 25 24 24 22 19 14 10 10 11 12 13 15 16 19 18 20 19 21 26 30
63 62 64 62 59 55 50 45 41 36 30 25 22 22 24 24 21 18 15 14 13 15 15 21 24 23 23 24 28 31 33 33
65 63 62 60 58 55 52 49 44 37 31 26 22 21 21 23 21 20 17 16 14 16 19 22 24 26 26 29 31 37 36 36
64 59 56 56 56 55 54 49 42 36 30 25 23 21 20 19 17 19 17 16 13 14 20 23 26 30 33 37 39 37 40 40
56 56 53 51 53 54 50 44 38 33 26 24 19 17 16 13 10 11 11 12 12 18 20 25 32 36 41 41 44 43 43 44
58 54 50 46 45 49 47 40 34 29 28 19 14 11 10 6 5 7 8 11 17 23 28 34 39 43 40 44 47 46 47 48
55 52 45 41 40 41 39 35 29 27 18 14 10 5 8 10 13 17 23 26 29 30 39 44 42 40 42 44 50 55 54 50
51 49 45 43 41 41 38 32 28 22 19 13 11 14 19 22 22 21 30 37 37 36 41 51 45 44 41 48 55 49 46 36
51 52 45 45 43 41 38 34 28 17 14 10 7 4 9 7 1 15 10 32 38 39 50 50 48 46 46 50 52 48 38 35
50 49 45 43 39 39 34 27 22 22 17 22 23 19 14 22 22 29 53 54 26 61 53 47 46 41 38 37 35 27 26 26
51 46 47 42 37 34 36 31 18 22 16 10 12 14 24 47 59 36 54 63 56 47 35 36 28 24 26 27 28 20 17 15
53 51 43 42 35 28 28 32 36 25 14 13 9 15 20 33 36 27 44 22 15 13 12 16 18 22 22 27 26 25 19 26
Wind_Direction_500mb
173 170 169 168 167 170 175 177 179 178 176 172 170 168 167 163 162 159 158 157 155 154 156 153 158 167 196 225 248 258 269 274
174 173 170 171 170 170 172 173 174 176 174 173 173 172 173 173 171 173 174 173 172 174 178 192 209 219 234 250 261 271 279 284
176 174 171 172 172 170 169 173 176 177 177 177 178 177 181 181 181 182 186 191 196 204 210 223 237 248 256 265 272 276 284 291
177 175 174 173 173 171 170 174 179 181 181 183 184 186 188 188 188 190 193 200 211 224 236 251 262 269 271 274 278 284 288 291
176 179 178 177 175 174 174 175 183 187 190 189 191 193 194 193 194 200 204 210 223 240 253 265 282 287 289 292 294 293 293 294
177 182 182 180 179 179 179 179 182 191 198 199 198 200 199 196 199 205 213 221 227 239 257 269 276 285 293 295 299 301 300 302
176 182 187 187 184 182 183 185 188 192 200 208 211 212 208 206 210 215 226 239 257 260 266 276 281 292 299 304 305 296 306 302
181 186 190 190 189 188 189 191 195 197 202 209 219 224 226 225 227 234 256 278 284 281 287 292 295 301 308 303 298 298 302 306
184 189 192 194 195 196 197 199 206 208 211 217 228 237 240 242 245 249 258 273 284 288 293 299 298 302 301 298 297 300 299 303
189 195 195 197 201 201 203 207 211 216 220 230 240 251 252 251 254 257 264 273 285 285 292 296 303 302 301 301 301 301 308 304
193 197 197 201 205 205 206 210 214 221 229 241 247 251 254 253 255 263 268 273 274 297 306 306 302 301 304 306 310 308 310 308
197 198 201 202 204 206 207 211 215 221 231 239 244 243 245 255 258 270 272 270 293 299 301 306 309 311 312 313 313 309 303 303
201 200 203 204 203 202 203 204 207 209 212 211 208 220 226 241 283 313 325 305 290 292 301 305 310 315 314 311 309 310 306 303
202 202 202 201 199 199 197 197 199 202 195 184 173 187 241 246 268 289 296 293 296 296 296 307 311 304 304 309 317 318 315 316
202 204 204 201 196 193 189 191 195 187 183 186 202 238 247 258 260 283 287 290 295 297 301 286 292 297 304 304 313 316 324 332
200 203 205 203 197 193 188 191 192 176 197 197 242 270 234 224 276 11 291 325 318 310 282 292 293 301 304 314 327 326 331 335
200 198 205 204 201 193 196 193 200 202 192 211 220 226 238 325 329 312 312 309 282 260 268 277 293 312 324 337 341 344 340 339
203 201 203 202 203 195 198 200 180 182 196 256 289 288 289 302 289 280 296 295 271 271 278 288 309 328 336 343 346 355 339 313
202 201 196 199 197 191 197 209 218 228 248 228 282 259 292 308 321 273 272 270 286 290 305 314 325 334 336 341 344 340 327 304
Wind_Speed_850mb
72 65 57 48 41 35 33 37 37 37 37 35 33 30 26 25 24 23 23 22 20 18 14 10 8 6 6 8 9 10 12 13
73 67 60 50 41 35 31 35 36 36 35 34 33 30 27 25 24 23 22 20 17 14 11 9 8 10 10 11 13 15 18 22
74 69 61 53 44 36 31 33 35 34 34 34 33 30 28 25 23 22 20 19 17 16 14 12 12 12 14 16 18 21 24 28
73 67 62 55 47 38 32 31 34 33 33 33 32 29 27 23 21 20 19 17 16 14 12 12 13 14 17 19 22 25 27 28
73 67 61 57 51 45 38 33 32 33 32 31 29 27 24 22 20 17 16 14 12 10 10 10 11 13 16 18 20 22 23 25
70 67 64 61 56 49 43 38 33 32 32 30 29 26 23 18 16 14 12 10 9 8 8 10 11 13 17 18 20 23 26 28
60 69 63 62 58 54 47 41 38 33 32 30 28 25 21 19 17 14 12 10 7 8 9 11 13 15 18 19 21 23 24 27
60 68 65 64 60 55 51 45 40 35 31 27 25 24 24 22 19 14 10 10 11 12 13 15 16 19 18 20 19 21 26 30
63 62 64 62 59 55 50 45 41 36 30 25 22 22 24 24 21 18 15 14 13 15 15 21 24 23 23 24 28 31 33 33
65 63 62 60 58 55 52 49 44 37 31 26 22 21 21 23 21 20 17 16 14 16 19 22 24 26 26 29 31 37 36 36
64 59 56 56 56 55 54 49 42 36 30 25 23 21 20 19 17 19 17 16 13 14 20 23 26 30 33 37 39 37 40 40
56 56 53 51 53 54 50 44 38 33 26 24 19 17 16 13 10 11 11 12 12 18 20 25 32 36 41 41 44 43 43 44
58 54 50 46 45 49 47 40 34 29 28 19 14 11 10 6 5 7 8 11 17 23 28 34 39 43 40 44 47 46 47 48
55 52 45 41 40 41 39 35 29 27 18 14 10 5 8 10 13 17 23 26 29 30 39 44 42 40 42 44 50 55 54 50
51 49 45 43 41 41 38 32 28 22 19 13 11 14 19 22 22 21 30 37 37 36 41 51 45 44 41 48 55 49 46 36
51 52 45 45 43 41 38 34 28 17 14 10 7 4 9 7 1 15 10 32 38 39 50 50 48 46 46 50 52 48 38 35
50 49 45 43 39 39 34 27 22 22 17 22 23 19 14 22 22 29 53 54 26 61 53 47 46 41 38 37 35 27 26 26
51 46 47 42 37 34 36 31 18 22 16 10 12 14 24 47 59 36 54 63 56 47 35 36 28 24 26 27 28 20 17 15
53 51 43 42 35 28 28 32 36 25 14 13 9 15 20 33 36 27 44 22 15 13 12 16 18 22 22 27 26 25 19 26
Wind_Direction_850mb
173 170 169 168 167 170 175 177 179 178 176 172 170 168 167 163 162 159 158 157 155 154 156 153 158 167 196 225 248 258 269 274
174 173 170 171 170 170 172 173 174 176 174 173 173 172 173 173 171 173 174 173 172 174 178 192 209 219 234 250 261 271 279 284
176 174 171 172 172 170 169 173 176 177 177 177 178 177 181 181 181 182 186 191 196 204 210 223 237 248 256 265 272 276 284 291
177 175 174 173 173 171 170 174 179 181 181 183 184 186 188 188 188 190 193 200 211 224 236 251 262 269 271 274 278 284 288 291
176 179 178 177 175 174 174 175 183 187 190 189 191 193 194 193 194 200 204 210 223 240 253 265 282 287 289 292 294 293 293 294
177 182 182 180 179 179 179 179 182 191 198 199 198 200 199 196 199 205 213 221 227 239 257 269 276 285 293 295 299 301 300 302
176 182 187 187 184 182 183 185 188 192 200 208 211 212 208 206 210 215 226 239 257 260 266 276 281 292 299 304 305 296 306 302
181 186 190 190 189 188 189 191 195 197 202 209 219 224 226 225 227 234 256 278 284 281 287 292 295 301 308 303 298 298 302 306
184 189 192 194 195 196 197 199 206 208 211 217 228 237 240 242 245 249 258 273 284 288 293 299 298 302 301 298 297 300 299 303
189 195 195 197 201 201 203 207 211 216 220 230 240 251 252 251 254 257 264 273 285 285 292 296 303 302 301 301 301 301 308 304
193 197 197 201 205 205 206 210 214 221 229 241 247 251 254 253 255 263 268 273 274 297 306 306 302 301 304 306 310 308 310 308
197 198 201 202 204 206 207 211 215 221 231 239 244 243 245 255 258 270 272 270 293 299 301 306 309 311 312 313 313 309 303 303
201 200 203 204 203 202 203 204 207 209 212 211 208 220 226 241 283 313 325 305 290 292 301 305 310 315 314 311 309 310 306 303
202 202 202 201 199 199 197 197 199 202 195 184 173 187 241 246 268 289 296 293 296 296 296 307 311 304 304 309 317 318 315 316
202 204 204 201 196 193 189 191 195 187 183 186 202 238 247 258 260 283 287 290 295 297 301 286 292 297 304 304 313 316 324 332
200 203 205 203 197 193 188 191 192 176 197 197 242 270 234 224 276 11 291 325 318 310 282 292 293 301 304 314 327 326 331 335
200 198 205 204 201 193 196 193 200 202 192 211 220 226 238 325 329 312 312 309 282 260 268 277 293 312 324 337 341 344 340 339
203 201 203 202 203 195 198 200 180 182 196 256 289 288 289 302 289 280 296 295 271 271 278 288 309 328 336 343 346 355 339 313
202 201 196 199 197 191 197 209 218 228 248 228 282 259 292 308 321 273 272 270 286 290 305 314 325 334 336 341 344 340 327 304